Location: ??????
(33.3472°N, 35.4764°E)
Time: 00:46:51
(UTC+00:00)

NOSS 3-4 (A) - Pass Details

Date: 21 August 2019
Orbit: 911 x 1301 km, 63.4° (Epoch: 14 September)

Event Time Altitude Azimuth Distance (km) Brightness Sun altitude
Rises 00:56:49 0° 327° (NNW) 3,930 6.7 -24.9°
Reaches altitude 10° 00:59:25 10° 325° (NW) 3,023 6.1 -24.4°
Maximum altitude 01:06:40 72° 243° (WSW) 1,266 3.8 -23.2°
Drops below altitude 10° 01:14:31 10° 160° (SSE) 3,254 6.1 -21.8°
Sets 01:17:24 0° 159° (SSE) 4,245 6.7 -21.3°
